Home > Weather > Marl > Past weeks

Flag for Germany Past Weather in Marl, North Rhine-Westphalia, Germany — Yesterday and Last 2 Weeks

Now
68 °F

Sunny.


Feels Like: 68 °F
Forecast: 62 / 79 °F
Wind: 5 mph from East

Location: Dortmund / Wickede

Current Time: Jul 23, 2016 at 11:30:17 PM

Latest Report: Jul 23, 2016 at 9:50 PM


Visibility: 10 mi

Pressure: 30.09 "Hg

Humidity: 56%

Dew Point: 52 °F

Location of MarlLocation

Past Weather in Marl — Graph

°F

Marl Temperature Yesterday

Maximum temperature yesterday: 77 °F (at 11:20 AM)
Minimum temperature yesterday: 64 °F (at 5:50 AM)
Average temperature yesterday: 72 °F

High & Low Weather Summary for the Past Weeks

 TemperatureHumidityPressure
High91 °F (Jul 20, 3:20 PM)88% (Jul 9, 5:50 AM)30.30 "Hg (Jul 9, 5:50 AM)
Low48 °F (Jul 14, 5:20 AM)20% (Jul 20, 5:20 PM)29.77 "Hg (Jul 10, 7:20 PM)
Average69 °F59%30.05 "Hg
* Reported Jul 8 9:20 PM — Jul 23 9:50 PM, Marl, Weather by CustomWeather, © 2016

Note: Actual official high and low records may vary slightly from our data, if they occured in-between our weather recording intervals... More about our weather records

Advertising

Marl Weather History for the Previous 24 Hours

Scroll right to see more
 ConditionsComfort  
Time TempWeatherWind HumidityBarometerVisibility
9:50 PM
Sat, Jul 23
68 °FSunny.5 mph56%30.09 "Hg10 mi
9:20 PM70 °FSunny.7 mph53%30.09 "Hg10 mi
8:50 PM70 °FPassing clouds.7 mph69%30.09 "HgN/A
8:20 PM72 °FPassing clouds.6 mph65%30.09 "HgN/A
7:50 PM72 °FPassing clouds.7 mph65%30.09 "HgN/A
7:20 PM72 °FPassing clouds.7 mph69%30.07 "HgN/A
6:50 PM72 °FPassing clouds.5 mph69%30.07 "HgN/A
6:20 PM72 °FSunny.5 mph69%30.09 "Hg10 mi
5:50 PM72 °FPassing clouds.6 mph69%30.09 "HgN/A
5:20 PM73 °FPassing clouds.6 mph65%30.09 "HgN/A
4:50 PM72 °FScattered clouds.5 mph69%30.09 "HgN/A
4:20 PM70 °FPassing clouds.5 mph73%30.09 "HgN/A
3:50 PM70 °FPartly sunny.7 mph73%30.09 "HgN/A
3:20 PM70 °FPassing clouds.5 mph73%30.09 "HgN/A
2:50 PM72 °FScattered clouds.3 mph73%30.09 "HgN/A
2:20 PM70 °FPartly sunny.3 mph73%30.09 "HgN/A
1:50 PM70 °FScattered clouds.5 mph73%30.09 "HgN/A
1:20 PM70 °FScattered clouds.3 mph73%30.09 "HgN/A
12:50 PM70 °FSprinkles. Scattered clouds.3 mph73%30.09 "HgN/A
12:20 PM70 °FScattered clouds.6 mph73%30.09 "HgN/A
11:50 AM70 °FBroken clouds.5 mph73%30.09 "Hg6 mi
11:20 AM68 °FPartly sunny.7 mph78%30.07 "HgN/A
10:50 AM70 °FPartly sunny.6 mph73%30.07 "Hg4 mi
10:20 AM70 °FClear.3 mph73%30.07 "Hg4 mi
9:50 AM68 °FClear.6 mph78%30.07 "Hg4 mi
9:20 AM68 °FFog.5 mph78%30.04 "Hg3 mi
8:50 AM68 °FFog.5 mph78%30.04 "Hg3 mi
8:20 AM66 °FFog.2 mph83%30.04 "Hg2 mi
7:50 AM64 °FFog.2 mph88%30.04 "Hg1 mi
7:20 AM64 °FFog.No wind88%30.04 "Hg1 mi
6:50 AM63 °FFog.1 mph88%30.04 "Hg2 mi
6:20 AM63 °FFog.3 mph88%30.04 "Hg2 mi
5:50 AM63 °FFog.1 mph88%30.04 "Hg2 mi
5:20 AM63 °FFog.1 mph88%30.04 "Hg2 mi
Weather by CustomWeather, © 2016

See weather overviewHow to use our weather pages